Location: Gleizolles
(44.4833°N, 6.7667°E)
Time: 15:59:46
(UTC+00:00)

Explorer 7 - Pass Details

Date: 19 June 2024
Orbit: 465 x 619 km, 50.3° (Epoch: 12 July)

Event Time Altitude Azimuth Distance (km) Brightness Sun altitude
Rises 10:36:13 0° 206° (SSW) 2,676 10.5 65.8°
Reaches altitude 10° 10:38:47 10° 193° (SSW) 1,758 9.8 66.1°
Maximum altitude 10:42:00 24° 138° (SE) 1,094 9.2 66.4°
Drops below altitude 10° 10:45:07 10° 84° (E) 1,695 9.6 66.7°
Sets 10:47:32 0° 70° (ENE) 2,556 10.3 66.9°
